EW2281 Weather Reports


Display with metric or nautical units.
time (UTC)temp
F
wind
direction
speed
MPH
gust
MPH
rain 1hr
in
rain 24hr
in
rain mn
in
humidity
%
barometer
mb
20260831040415 69 69 0.0 0.0 0.00 0.00 0.00 97 976.0
20260831035909 69 69 0.0 0.0 0.00 0.00 0.00 97 975.9
20260831035404 69 69 0.0 0.0 0.00 0.00 0.00 97 976.0
20260831034857 69 69 0.0 0.0 0.00 0.00 0.00 97 976.1
20260831034352 69 69 0.0 0.0 0.00 0.00 0.00 97 976.1
20260831034109 69 69 0.0 0.0 0.00 0.00 0.00 97 976.1
20260831033341 69 69 0.0 0.0 0.00 0.00 0.00 97 976.2
20260831032834 69 69 0.0 0.0 0.00 0.00 0.00 97 976.1
20260831032328 69 69 0.0 0.0 0.00 0.00 0.00 96 976.1
20260831031822 69 69 0.0 0.0 0.00 0.00 0.00 96 976.1
20260831031316 69 69 0.0 0.0 0.00 0.00 0.00 96 976.2
20260831030810 70 69 0.0 0.0 0.00 0.00 0.00 96 976.3
20260831030303 70 69 0.0 0.0 0.00 0.00 0.00 95 976.3
20260831025757 70 69 0.0 0.0 0.00 0.00 0.00 95 976.2
20260831025251 70 69 0.0 0.0 0.00 0.00 0.00 95 976.3
20260831024746 70 69 0.0 0.0 0.00 0.00 0.00 94 976.3
20260831024501 70 69 0.0 0.0 0.00 0.00 0.00 94 976.2
20260831023733 70 69 0.0 0.0 0.00 0.00 0.00 94 976.3
20260831023446 70 69 0.0 0.0 0.00 0.00 0.00 93 976.4
20260831022722 70 69 0.0 0.0 0.00 0.00 0.00 93 976.4
20260831022216 70 69 0.0 0.0 0.00 0.00 0.00 93 976.4
20260831021709 70 69 0.0 0.0 0.00 0.00 0.00 93 976.4
20260831021431 70 69 0.0 0.0 0.00 0.00 0.00 92 976.4
20260831020928 71 69 0.0 0.0 0.00 0.00 0.00 92 976.3
20260831020205 71 69 0.0 0.0 0.00 0.00 0.00 92 976.2
20260831015704 71 69 0.0 0.0 0.00 0.00 0.00 92 976.2
20260831015205 71 69 0.0 0.0 0.00 0.00 0.00 91 976.2
20260831014701 71 69 0.0 0.0 0.00 0.00 0.00 91 976.3
20260831014203 71 69 0.0 0.0 0.00 0.00 0.00 91 976.2
20260831013704 71 69 0.0 0.0 0.00 0.00 0.00 90 976.2
20260831013200 71 69 0.0 0.0 0.00 0.00 0.00 90 976.2
20260831012700 71 69 0.0 0.0 0.00 0.00 0.00 90 976.1
20260831012200 71 69 0.0 0.0 0.00 0.00 0.00 90 976.1
20260831011923 71 69 0.0 0.0 0.00 0.00 0.00 90 975.9
20260831011204 71 69 0.0 0.0 0.00 0.00 0.00 90 975.8
20260831010659 71 69 0.0 0.0 0.00 0.00 0.00 90 975.8
20260831010420 71 69 0.0 0.0 0.00 0.00 0.00 90 975.7
20260831005657 71 69 0.0 0.0 0.00 0.00 0.00 89 975.6
20260831005414 71 69 0.0 0.0 0.00 0.00 0.00 88 975.5
20260831004916 71 69 0.0 0.0 0.00 0.00 0.00 87 975.3
20260831004151 72 69 0.0 0.0 0.00 0.00 0.00 87 975.2
20260831004144 72 69 0.0 0.0 0.00 0.00 0.00 87 975.1
20260831003151 72 69 0.0 0.0 0.00 0.00 0.00 86 974.8
20260831002651 72 69 0.0 0.0 0.00 0.00 0.00 86 974.8
20260831002416 72 69 0.0 0.0 0.00 0.00 0.00 85 974.8
20260831001649 73 69 0.0 0.0 0.00 0.00 0.00 85 974.6
20260831001148 73 69 0.0 0.0 0.00 0.00 0.00 84 974.5
20260831000648 73 69 0.0 0.0 0.00 0.00 0.00 84 974.6
20260831000149 73 69 0.0 0.0 0.00 0.00 0.00 84 974.5
20260830235914 73 69 0.0 0.0 0.00 0.00 0.00 83 974.6
20260830235409 73 69 0.0 0.0 0.00 0.00 0.00 83 974.6
20260830234645 73 69 0.0 0.0 0.00 0.00 0.00 83 974.4
20260830234408 74 69 0.0 0.0 0.00 0.00 0.00 82 974.4
20260830233639 74 69 0.0 0.0 0.00 0.00 0.00 82 974.5
20260830233137 74 69 0.0 0.0 0.00 0.00 0.00 81 974.6
20260830233119 74 69 0.0 0.0 0.00 0.00 0.00 80 974.6
20260830232406 75 69 0.0 0.0 0.00 0.00 0.00 80 974.6
20260830231639 75 69 0.0 0.0 0.00 0.00 0.00 81 974.6
20260830231137 75 69 0.0 0.0 0.00 0.00 0.00 80 974.6
20260830230639 75 69 0.0 0.0 0.00 0.00 0.00 80 974.6
20260830230401 75 69 0.0 1.0 0.00 0.00 0.00 80 974.7
20260830225639 75 69 0.0 1.0 0.00 0.00 0.00 80 974.7
20260830225133 75 74 0.0 0.0 0.00 0.00 0.00 80 974.8
20260830224618 75 74 0.0 0.0 0.00 0.00 0.00 79 974.8
20260830224119 75 74 0.0 0.0 0.00 0.00 0.00 79 974.8
20260830223619 75 74 0.0 0.0 0.00 0.00 0.00 79 974.8
20260830223118 76 74 0.0 1.0 0.00 0.00 0.00 79 974.8
20260830222618 76 74 0.0 1.0 0.00 0.00 0.00 79 974.8
20260830222117 76 74 0.0 1.0 0.00 0.00 0.00 79 974.8
20260830221844 76 74 0.0 1.0 0.00 0.00 0.00 79 974.8
20260830221118 76 33 0.0 0.0 0.00 0.00 0.00 79 974.9
20260830220619 76 33 0.0 0.0 0.00 0.00 0.00 79 974.9
20260830220114 76 33 0.0 0.0 0.00 0.00 0.00 78 974.9
20260830215615 76 33 0.0 1.0 0.00 0.00 0.00 78 974.8
20260830215114 77 33 0.0 3.0 0.00 0.00 0.00 77 974.9
20260830214613 77 33 0.0 3.0 0.00 0.00 0.00 77 974.8
20260830214115 77 19 1.0 4.0 0.00 0.00 0.00 76 974.8
20260830213615 77 35 1.0 4.0 0.00 0.00 0.00 76 974.8
20260830213114 77 26 0.0 1.0 0.00 0.00 0.00 77 974.8
20260830212615 77 34 0.0 0.0 0.00 0.00 0.00 76 974.7
20260830212111 77 15 0.0 0.0 0.00 0.00 0.00 76 974.7
20260830211614 77 57 0.0 0.0 0.00 0.00 0.00 76 974.6
20260830211112 78 57 0.0 0.0 0.00 0.00 0.00 76 974.6
20260830210611 78 19 0.0 0.0 0.00 0.00 0.00 76 974.7
20260830210111 78 18 0.0 2.0 0.00 0.00 0.00 75 974.6
20260830210101 78 35 0.0 2.0 0.00 0.00 0.00 75 974.6
20260830205105 78 22 0.0 2.0 0.00 0.00 0.00 75 974.6
20260830204603 79 22 0.0 3.0 0.00 0.00 0.00 75 974.6
20260830204103 79 46 1.0 3.0 0.00 0.00 0.00 73 974.5
20260830203601 79 15 1.0 3.0 0.00 0.00 0.00 74 974.5
20260830203102 79 24 1.0 3.0 0.00 0.00 0.00 72 974.4
20260830202559 79 26 0.0 2.0 0.00 0.00 0.00 72 974.4
20260830202100 79 25 0.0 2.0 0.00 0.00 0.00 74 974.4
20260830201600 80 25 0.0 2.0 0.00 0.00 0.00 73 974.5
20260830201100 80 43 0.0 3.0 0.00 0.00 0.00 73 974.6
20260830200816 80 43 1.0 5.0 0.00 0.00 0.00 72 974.6
20260830200050 81 41 1.0 5.0 0.00 0.00 0.00 70 974.5
20260830195544 81 14 1.0 4.0 0.00 0.00 0.00 70 974.6
20260830195039 81 38 0.0 4.0 0.00 0.00 0.00 69 974.7
20260830194533 81 300 0.0 2.0 0.00 0.00 0.00 70 974.7
20260830194026 81 300 0.0 2.0 0.00 0.00 0.00 71 974.7
20260830193521 82 295 0.0 3.0 0.00 0.00 0.00 71 974.8
20260830193014 82 295 0.0 3.0 0.00 0.00 0.00 68 974.8
20260830192508 82 254 0.0 1.0 0.00 0.00 0.00 71 974.8
20260830192002 81 311 0.0 1.0 0.00 0.00 0.00 70 974.9
20260830191718 81 34 0.0 2.0 0.00 0.00 0.00 73 975.0
20260830190951 80 34 0.0 2.0 0.00 0.00 0.00 71 975.1
20260830190706 80 32 0.0 2.0 0.00 0.00 0.00 68 975.1
20260830185938 81 326 0.0 1.0 0.00 0.00 0.00 72 975.2
20260830185652 81 326 0.0 2.0 0.00 0.00 0.00 68 975.3
20260830184927 82 13 1.0 3.0 0.00 0.00 0.00 70 975.3
20260830184421 81 290 0.0 3.0 0.00 0.00 0.00 68 975.4
20260830183914 82 294 0.0 2.0 0.00 0.00 0.00 71 975.4
20260830183408 81 302 1.0 3.0 0.00 0.00 0.00 69 975.4
20260830182903 82 308 1.0 3.0 0.00 0.00 0.00 69 975.4
20260830182357 82 29 0.0 3.0 0.00 0.00 0.00 69 975.5
20260830181850 82 270 0.0 1.0 0.00 0.00 0.00 69 975.5
20260830181344 82 271 0.0 1.0 0.00 0.00 0.00 70 975.6
20260830180839 81 193 1.0 4.0 0.00 0.00 0.00 68 975.7
20260830180555 81 306 1.0 4.0 0.00 0.00 0.00 66 975.7
20260830175827 82 294 1.0 3.0 0.00 0.00 0.00 69 975.7
20260830175321 82 285 1.0 3.0 0.00 0.00 0.00 68 975.7
20260830174814 83 287 0.0 2.0 0.00 0.00 0.00 70 975.8
20260830174309 83 281 0.0 3.0 0.00 0.00 0.00 66 975.8
20260830173803 83 281 1.0 3.0 0.00 0.00 0.00 69 975.8
20260830173257 83 232 1.0 4.0 0.00 0.00 0.00 70 975.9
20260830172751 83 26 1.0 4.0 0.00 0.00 0.00 68 975.9
20260830172245 83 341 1.0 2.0 0.00 0.00 0.00 67 975.9
20260830171739 82 179 1.0 5.0 0.00 0.00 0.00 74 976.0
20260830171233 81 285 1.0 5.0 0.00 0.00 0.00 68 976.1
20260830170953 82 305 0.0 4.0 0.00 0.00 0.00 71 976.1
20260830170221 81 270 0.0 1.0 0.00 0.00 0.00 74 976.2
20260830165714 80 179 0.0 3.0 0.00 0.00 0.00 76 976.2
20260830165209 80 271 1.0 3.0 0.00 0.00 0.00 74 976.2
20260830165146 81 298 0.0 3.0 0.00 0.00 0.00 72 976.3
20260830164157 81 277 0.0 4.0 0.00 0.00 0.00 72 976.2
20260830163651 80 305 1.0 4.0 0.00 0.00 0.00 73 976.2
20260830163411 80 118 1.0 3.0 0.00 0.00 0.00 73 976.2
20260830162639 80 282 1.0 3.0 0.00 0.00 0.00 73 976.4
20260830162132 80 305 0.0 2.0 0.00 0.00 0.00 72 976.4
20260830161627 80 286 0.0 2.0 0.00 0.00 0.00 74 976.4
20260830161348 79 238 0.0 2.0 0.00 0.00 0.00 75 976.4
20260830160615 79 288 0.0 3.0 0.00 0.00 0.00 76 976.5
20260830160109 79 165 0.0 3.0 0.00 0.00 0.00 73 976.5
20260830155603 79 219 0.0 2.0 0.00 0.00 0.00 75 976.5
20260830155057 78 161 0.0 2.0 0.00 0.00 0.00 77 976.6
20260830154809 78 180 0.0 2.0 0.00 0.00 0.00 77 976.7
20260830154045 77 288 1.0 5.0 0.00 0.00 0.00 77 976.7
20260830153538 77 178 0.0 5.0 0.00 0.00 0.00 78 976.7
20260830153033 77 200 0.0 1.0 0.00 0.00 0.00 76 976.8
20260830152527 76 236 0.0 2.0 0.00 0.00 0.00 78 976.7
20260830152020 76 286 0.0 2.0 0.00 0.00 0.00 78 976.7
20260830151515 76 298 1.0 3.0 0.00 0.00 0.00 79 976.8
20260830151238 76 196 1.0 3.0 0.00 0.00 0.00 80 976.7
20260830150503 76 133 0.0 3.0 0.00 0.00 0.00 79 976.7
20260830145957 75 296 0.0 3.0 0.00 0.00 0.00 79 976.6
20260830145450 75 171 0.0 1.0 0.00 0.00 0.00 79 976.7
20260830144944 75 255 0.0 3.0 0.00 0.00 0.00 81 976.7
20260830144439 74 256 1.0 4.0 0.00 0.00 0.00 80 976.6
20260830143933 74 315 1.0 4.0 0.00 0.00 0.00 79 976.6
20260830143645 74 261 0.0 3.0 0.00 0.00 0.00 80 976.6
20260830142924 73 207 0.0 3.0 0.00 0.00 0.00 81 976.6
20260830142424 72 166 0.0 3.0 0.00 0.00 0.00 81 976.7
20260830142145 71 186 0.0 1.0 0.00 0.00 0.00 82 976.8
20260830141649 71 242 0.0 1.0 0.00 0.00 0.00 83 976.9
20260830140921 70 257 0.0 1.0 0.00 0.00 0.00 83 976.8
20260830140421 70 178 0.0 1.0 0.00 0.00 0.00 84 976.8
20260830135920 70 309 0.0 1.0 0.00 0.00 0.00 83 976.8
20260830135420 69 145 0.0 1.0 0.00 0.00 0.00 84 976.8
20260830134918 69 167 0.0 0.0 0.00 0.00 0.00 85 976.8
20260830134642 69 171 0.0 0.0 0.00 0.00 0.00 86 976.7
20260830134140 68 292 0.0 0.0 0.00 0.00 0.00 86 976.8
20260830133415 68 292 0.0 0.0 0.00 0.00 0.00 85 976.9
20260830133138 67 233 0.0 0.0 0.00 0.00 0.00 84 976.9
20260830132415 67 184 0.0 0.0 0.00 0.00 0.00 85 976.9
20260830132137 67 184 0.0 0.0 0.00 0.00 0.00 88 977.0
20260830131414 66 184 0.0 0.0 0.00 0.00 0.00 87 977.0
20260830130908 66 184 0.0 0.0 0.00 0.00 0.00 86 977.0
20260830130406 65 184 0.0 0.0 0.00 0.00 0.00 89 976.9
20260830125904 65 184 0.0 0.0 0.00 0.00 0.00 90 977.0
20260830125402 64 184 0.0 0.0 0.00 0.00 0.00 89 977.0
20260830124903 64 184 0.0 0.0 0.00 0.00 0.00 90 977.0
20260830124859 64 184 0.0 0.0 0.00 0.00 0.00 90 977.0
20260830123858 64 184 0.0 0.0 0.00 0.00 0.00 90 977.0
20260830123400 64 184 0.0 0.0 0.00 0.00 0.00 89 977.0
20260830122856 64 184 0.0 0.0 0.00 0.00 0.00 87 977.0
20260830122401 63 184 0.0 0.0 0.00 0.00 0.00 88 977.1
20260830122356 63 184 0.0 0.0 0.00 0.00 0.00 88 977.2
20260830121354 63 184 0.0 0.0 0.00 0.00 0.00 90 977.1
20260830120852 63 184 0.0 0.0 0.00 0.00 0.00 90 977.1
20260830120614 62 184 0.0 0.0 0.00 0.00 0.00 90 977.1
20260830120115 62 184 0.0 0.0 0.00 0.00 0.00 90 977.0
20260830115350 61 184 0.0 0.0 0.00 0.00 0.00 90 977.0
20260830114850 61 184 0.0 0.0 0.00 0.00 0.00 92 977.0
20260830114351 61 184 0.0 0.0 0.00 0.00 0.00 92 977.0
20260830114333 60 184 0.0 0.0 0.00 0.00 0.00 93 977.0
20260830113351 60 184 0.0 0.0 0.00 0.00 0.00 94 977.1
20260830113331 60 184 0.0 0.0 0.00 0.00 0.00 95 977.1
20260830112351 60 184 0.0 0.0 0.00 0.00 0.00 95 977.0
20260830111850 60 184 0.0 0.0 0.00 0.00 0.00 95 977.0
20260830111352 59 184 0.0 0.0 0.00 0.00 0.00 95 977.1
20260830110851 59 184 0.0 0.0 0.00 0.00 0.00 95 977.0
20260830110352 59 184 0.0 0.0 0.00 0.00 0.00 95 976.9
20260830105850 59 184 0.0 0.0 0.00 0.00 0.00 95 976.8
20260830105352 59 184 0.0 0.0 0.00 0.00 0.00 95 976.9
20260830104850 59 184 0.0 0.0 0.00 0.00 0.00 94 976.8
20260830104350 59 184 0.0 0.0 0.00 0.00 0.00 94 976.8
20260830103849 59 184 0.0 0.0 0.00 0.00 0.00 94 976.8
20260830103348 59 184 0.0 0.0 0.00 0.00 0.00 94 976.7
20260830102850 60 184 0.0 0.0 0.00 0.00 0.00 93 976.8
20260830102348 60 184 0.0 0.0 0.00 0.00 0.00 93 976.8
20260830101846 60 184 0.0 0.0 0.00 0.00 0.00 93 976.8
20260830101344 60 184 0.0 0.0 0.00 0.00 0.00 93 976.9
20260830100844 60 184 0.0 0.0 0.00 0.00 0.00 93 977.0
20260830100602 60 184 0.0 0.0 0.00 0.00 0.00 93 977.1
20260830095844 60 184 0.0 0.0 0.00 0.00 0.00 93 977.0
20260830095340 60 184 0.0 0.0 0.00 0.00 0.00 93 977.2
20260830094836 60 184 0.0 0.0 0.00 0.00 0.00 93 977.3
20260830094337 60 184 0.0 0.0 0.00 0.00 0.00 93 977.3
20260830093834 60 184 0.0 0.0 0.00 0.00 0.00 93 977.3
20260830093326 60 184 0.0 0.0 0.00 0.00 0.00 93 977.2
20260830093051 60 184 0.0 0.0 0.00 0.00 0.00 93 977.2
20260830092326 60 184 0.0 0.0 0.00 0.00 0.00 93 977.2
20260830091827 60 184 0.0 0.0 0.00 0.00 0.00 94 977.0
20260830091809 60 184 0.0 0.0 0.00 0.00 0.00 94 977.1
20260830090824 59 184 0.0 0.0 0.00 0.00 0.00 94 977.0
20260830090322 59 184 0.0 0.0 0.00 0.00 0.00 94 977.2
20260830090047 59 184 0.0 0.0 0.00 0.00 0.00 94 977.2
20260830085319 59 184 0.0 0.0 0.00 0.00 0.00 94 977.2
20260830084819 59 184 0.0 0.0 0.00 0.00 0.00 95 977.2
20260830084323 59 184 0.0 0.0 0.00 0.00 0.00 95 977.2
20260830083816 59 184 0.0 0.0 0.00 0.00 0.00 95 977.3
20260830083314 59 184 0.0 0.0 0.00 0.00 0.00 95 977.4
20260830082813 59 184 0.0 0.0 0.00 0.00 0.00 95 977.4
20260830082310 59 184 0.0 0.0 0.00 0.00 0.00 95 977.3
20260830081811 58 184 0.0 0.0 0.00 0.00 0.00 95 977.4
20260830081312 58 184 0.0 0.0 0.00 0.00 0.00 95 977.4
20260830080809 58 184 0.0 0.0 0.00 0.00 0.00 95 977.4
20260830080309 58 184 0.0 0.0 0.00 0.00 0.00 95 977.5
20260830080021 58 184 0.0 0.0 0.00 0.00 0.00 95 977.5
20260830075257 58 184 0.0 0.0 0.00 0.00 0.00 96 977.5
20260830074751 58 184 0.0 0.0 0.00 0.00 0.00 96 977.4
20260830074245 58 184 0.0 0.0 0.00 0.00 0.00 96 977.5
20260830073739 58 184 0.0 0.0 0.00 0.00 0.00 96 977.6
20260830073233 58 184 0.0 0.0 0.00 0.00 0.00 96 977.6
20260830072956 58 184 0.0 0.0 0.00 0.00 0.00 96 977.7
20260830072221 58 184 0.0 0.0 0.00 0.00 0.00 96 977.6
20260830071715 58 184 0.0 0.0 0.00 0.00 0.00 96 977.6
20260830071209 57 184 0.0 0.0 0.00 0.00 0.00 96 977.5
20260830070703 57 184 0.0 0.0 0.00 0.00 0.00 96 977.6
20260830070157 57 184 0.0 0.0 0.00 0.00 0.00 96 977.7
20260830065650 57 184 0.0 0.0 0.00 0.00 0.00 96 977.7
20260830065145 57 184 0.0 0.0 0.00 0.00 0.00 96 977.6
20260830064856 57 184 0.0 0.0 0.00 0.00 0.00 96 977.5
20260830064133 57 184 0.0 0.0 0.00 0.00 0.00 96 977.5
20260830063851 57 184 0.0 0.0 0.00 0.00 0.00 96 977.6
20260830063121 57 184 0.0 0.0 0.00 0.00 0.00 96 977.6
20260830062615 57 184 0.0 0.0 0.00 0.00 0.00 96 977.6
20260830062108 57 184 0.0 0.0 0.00 0.00 0.00 96 977.7
20260830061603 57 184 0.0 0.0 0.00 0.00 0.00 95 977.7
20260830061057 57 184 0.0 0.0 0.00 0.00 0.00 95 977.8
20260830060551 57 184 0.0 0.0 0.00 0.00 0.00 95 977.8
20260830060045 57 184 0.0 0.0 0.00 0.00 0.00 95 977.7
20260830060030 57 184 0.0 0.0 0.00 0.00 0.00 94 977.7
20260830055033 57 184 0.0 0.0 0.00 0.00 0.00 94 977.8
20260830054527 57 184 0.0 0.0 0.00 0.00 0.00 94 977.9
20260830054021 57 184 0.0 0.0 0.00 0.00 0.00 94 978.0
20260830053515 58 184 0.0 0.0 0.00 0.00 0.00 94 978.0
20260830053009 58 184 0.0 0.0 0.00 0.00 0.00 93 978.1
20260830052502 58 184 0.0 0.0 0.00 0.00 0.00 93 978.1
20260830051956 58 184 0.0 0.0 0.00 0.00 0.00 93 978.1
20260830051451 58 184 0.0 0.0 0.00 0.00 0.00 93 978.1